Starlink 2294

decayed
NORAD ID: 48020 Int'l Des: 2021-024 Owner: SPXS Country: US Constellation: starlink
LEOCIRCULAR
グループ

Starlink 2294について

説明を読み込み中...

高度履歴

Altitude vs Time

uPlot chart will show altitude changes over time

軌道要素

1 48020U 21024AV 25034.41441137 .12383694 12307-4 10972-2 0 9996
2 48020 53.0299 226.9750 0007410 266.5056 173.0333 16.38278407215270
Epoch: Feb 3, 2025 • Age: 7522 hours

現在のステータス

Position data unavailable
打ち上げ日 Mar 24, 2021
運用期間 4.7 years
落下予定日 Feb 3, 2025
タイプ internet

技術仕様

分類 Payload
質量 260.00 kg
乾燥質量 248.00 kg
総質量 260.00 kg
長さ 0.20 m
直径 2.80 m
スパン 9.00 m
形状 Box + pan
製造者 SPXS
バスタイプ Starlink
フェーズステータス Unknown Transfer Status
所有者/国 SPXS/US

大規模コンステレーション

Loading constellations...